Overview Statistics Trail Chart Weather Telemetry Raw packets
 

This is the latest recevied weather packets stored in our database for station/object KD4EED. If no packets are shown the sender has not sent any weather packets the latest 10 day(s).

<< 32 33 34 35 36 37 38 >>
Time Temp. Humidity Pressure Rain* Wind** Luminosity Snow
1788462704 27.78° C 54% 1011.5 hPa - - 568 W/m² -
1788462399 27.78° C 54% 1011.5 hPa - - 558 W/m² -
1788462099 27.78° C 54% 1011.5 hPa - - 559 W/m² -
1788461794 27.78° C 53% 1011.6 hPa - - 557 W/m² -
1788461489 27.78° C 54% 1011.5 hPa - - 549 W/m² -
1788461186 27.78° C 54% 1011.7 hPa - - 550 W/m² -
1788460881 28.33° C 52% 1011.9 hPa - - 545 W/m² -
1788460580 28.89° C 51% 1011.7 hPa - - 539 W/m² -
1788460275 28.33° C 52% 1011.8 hPa - - 538 W/m² -
1788459974 28.33° C 52% 1011.7 hPa - - 539 W/m² -
1788459670 27.78° C 52% 1011.9 hPa - - 536 W/m² -
1788459390 27.22° C 54% 1011.9 hPa - - 523 W/m² -
1788459063 26.67° C 54% 1012 hPa - - 514 W/m² -
1788458758 26.11° C 57% 1012.1 hPa - - 521 W/m² -
1788458453 25.56° C 62% 1012 hPa - - 411 W/m² -
1788458151 25.56° C 57% 1012 hPa - - 503 W/m² -
1788457858 25° C 59% 1012.2 hPa - - 485 W/m² -
1788457552 25° C 60% 1012.2 hPa - - 458 W/m² -
1788457247 24.44° C 61% 1012.1 hPa - - 332 W/m² -
1788456942 24.44° C 62% 1012.1 hPa - - 129 W/m² -
1788456639 23.89° C 62% 1012 hPa - - 137 W/m² -
1788456338 23.89° C 64% 1012.1 hPa - - 119 W/m² -
1788456034 23.89° C 65% 1012.2 hPa - - 122 W/m² -
1788455729 23.33° C 64% 1012.1 hPa - - 132 W/m² -
1788455425 23.33° C 63% 1012.2 hPa - - 118 W/m² -

* Rain since midnight (hover to see other rain measurements)
** Current wind speed in m/s (hover to see current wind gust speed)